Home > Weather > Chennai > Past weeks

Flag for India Past Weather in Chennai, Tamil Nadu, India — Yesterday and Last 2 Weeks

Now
79 °F

Partly cloudy.


Feels Like: 82 °F
Forecast: 78 / 89 °F
Wind: No wind

Location: Madras / Minambakkam

Current Time: Jul 31, 2016 at 12:26:25 AM

Latest Report: Jul 31, 2016 at 12:00 AM


Visibility: 4 mi

Pressure: 29.71 "Hg

Humidity: 89%

Dew Point: 75 °F

Location of ChennaiLocation

Past Weather in Chennai — Graph

°F

Chennai Temperature Yesterday

Maximum temperature yesterday: 90 °F (at 2:00 PM)
Minimum temperature yesterday: 75 °F (at 8:30 PM)
Average temperature yesterday: 84 °F

High & Low Weather Summary for the Past Weeks

 TemperatureHumidityPressure
High97 °F (Jul 16, 2:00 PM)100% (Jul 19, 7:30 AM)29.80 "Hg (Jul 19, 7:30 AM)
Low75 °F (Jul 20, 3:30 AM)47% (Jul 16, 2:00 PM)29.56 "Hg (Jul 22, 3:30 PM)
Average85 °F72%29.67 "Hg
* Reported Jul 15 10:30 PM — Jul 30 11:00 PM, Chennai, Weather by CustomWeather, © 2016

Note: Actual official high and low records may vary slightly from our data, if they occured in-between our weather recording intervals... More about our weather records

Advertising

Chennai Weather History for the Previous 24 Hours

Scroll right to see more
 ConditionsComfort  
Time TempWeatherWind HumidityBarometerVisibility
11:00 PM
Sat, Jul 30
79 °FPartly cloudy.No wind89%29.71 "Hg4 mi
10:30 PM79 °FPartly cloudy.3 mph89%29.71 "Hg3 mi
10:00 PM79 °FDrizzle. Mostly cloudy.6 mph89%29.74 "Hg3 mi
9:30 PM77 °FDrizzle. Mostly cloudy.9 mph89%29.71 "Hg3 mi
9:00 PM77 °FThunderstorms. Mostly cloudy.9 mph89%29.71 "Hg2 mi
8:30 PM75 °FThunderstorms. Mostly cloudy.12 mph94%29.68 "Hg2 mi
8:00 PM77 °FThunderstorms. Mostly cloudy.9 mph89%29.71 "Hg2 mi
7:30 PM86 °FPartly cloudy.9 mph66%29.65 "Hg3 mi
7:00 PM88 °FBroken clouds.6 mph66%29.65 "Hg3 mi
6:30 PM88 °FBroken clouds.7 mph62%29.62 "Hg3 mi
6:00 PM88 °FBroken clouds.7 mph62%29.62 "Hg3 mi
5:30 PM88 °FDrizzle. Broken clouds.8 mph62%29.59 "Hg3 mi
5:00 PM90 °FPartly sunny.8 mph59%29.59 "Hg3 mi
4:30 PM90 °FPartly sunny.7 mph59%29.59 "Hg3 mi
4:00 PM90 °FPartly sunny.8 mph59%29.62 "Hg3 mi
3:30 PM90 °FPartly sunny.7 mph59%29.62 "Hg3 mi
3:00 PM90 °FPartly sunny.8 mph59%29.62 "Hg3 mi
2:30 PM90 °FPartly sunny.7 mph63%29.62 "Hg3 mi
2:00 PM90 °FPartly sunny.6 mph59%29.65 "Hg3 mi
1:30 PM88 °FPartly sunny.7 mph66%29.65 "Hg3 mi
1:00 PM88 °FPartly sunny.6 mph66%29.65 "Hg3 mi
12:30 PM88 °FPartly sunny.5 mph62%29.68 "Hg3 mi
12:00 PM86 °FPartly sunny.6 mph70%29.68 "Hg3 mi
11:30 AM86 °FBroken clouds.6 mph70%29.68 "Hg3 mi
11:00 AM86 °FBroken clouds.6 mph66%29.68 "Hg3 mi
10:30 AM86 °FBroken clouds.7 mph66%29.68 "Hg3 mi
10:00 AM84 °FBroken clouds.6 mph70%29.68 "Hg3 mi
9:30 AM84 °FBroken clouds.6 mph70%29.68 "Hg3 mi
9:00 AM84 °FScattered clouds.5 mph70%29.68 "Hg3 mi
8:30 AM84 °FScattered clouds.3 mph70%29.68 "Hg3 mi
8:00 AM84 °FScattered clouds.3 mph70%29.65 "Hg3 mi
7:30 AM84 °FScattered clouds.3 mph70%29.65 "Hg4 mi
7:00 AM82 °FScattered clouds.6 mph74%29.65 "Hg4 mi
6:30 AM82 °FScattered clouds.7 mph74%29.65 "Hg4 mi
6:00 AM82 °FPassing clouds.6 mph74%29.62 "Hg4 mi
5:30 AM82 °FPassing clouds.7 mph74%29.62 "Hg4 mi
5:00 AM82 °FPassing clouds.3 mph79%29.62 "Hg4 mi
4:30 AM82 °FPassing clouds.5 mph79%29.62 "Hg4 mi
4:00 AM82 °FPassing clouds.6 mph79%29.62 "Hg4 mi
3:30 AM82 °FPassing clouds.6 mph74%29.62 "Hg4 mi
3:00 AM84 °FPassing clouds.6 mph70%29.62 "Hg4 mi
2:30 AM84 °FPassing clouds.6 mph70%29.62 "Hg4 mi
2:00 AM82 °FPassing clouds.5 mph79%29.65 "Hg4 mi
1:30 AM82 °FPassing clouds.3 mph79%29.65 "Hg4 mi
1:00 AM82 °FPassing clouds.3 mph79%29.65 "Hg4 mi
12:30 AM84 °FPassing clouds.3 mph74%29.68 "Hg4 mi
12:00 AM84 °FPassing clouds.3 mph74%29.68 "Hg4 mi
Weather by CustomWeather, © 2016

See weather overviewHow to use our weather pages